User: anonymous   Login
Location: Unspecified
(0.0000°N, 0.0000°E)
Time: 19:45:55
(UTC+00:00)
Language:

COSMOS 2496 - Orbit

View from above orbital plane
View from above orbital plane
View from above satellite
View from above satellite

Ground track
Ground track

The orbit data is extracted from the following two-line orbital elements,

1 39761U 14028A   21025.70343413  .00000007  00000-0 -17880-4 0  9992
2 39761  82.4452 261.7387 0020346  47.8235 312.4565 12.42879981303048
Epoch (UTC): 25 January 2021 16:52:56
Eccentricity: 0.0020346
inclination: 82.4452°
perigee height: 1478 km
apogee height: 1510 km
right ascension of ascending node: 261.7387°
argument of perigee: 47.8235°
revolutions per day: 12.42879981
mean anomaly at epoch: 312.4565°
orbit number at epoch: 30304

The dashed part of the orbit path shows where the satellite is in the earth's shadow,  

DLR